Location: *
(45.5667°S, 177.5167°W)
Time: 12:16:21
(UTC+00:00)

Cosmos 1862 - Visible Passes

Search period start: 26 September 2022 00:00
Search period end: 06 October 2022 00:00
Orbit: 531 x 552 km, 82.5° (Epoch: 25 September)

Date Brightness Start Highest point End Pass type
(mag) Time Alt. Az. Time Alt. Az. Time Alt. Az.
26 Sep 6.5 13:33:30 12° SE 13:33:30 12° SE 13:34:00 10° SE visible
26 Sep 5.2 15:09:03 21° SSW 15:09:03 21° SSW 15:10:46 10° S visible
27 Sep 6.6 13:26:48 12° SE 13:26:48 12° SE 13:27:11 10° SE visible
27 Sep 5.3 15:02:21 20° SSW 15:02:21 20° SSW 15:03:54 10° S visible
28 Sep 6.6 13:20:05 11° SE 13:20:05 11° SE 13:20:22 10° SE visible
28 Sep 5.5 14:55:38 19° SSW 14:55:38 19° SSW 14:57:02 10° S visible
29 Sep 6.6 13:13:21 11° SE 13:13:21 11° SE 13:13:33 10° SE visible
29 Sep 5.5 14:48:54 18° SSW 14:48:54 18° SSW 14:50:10 10° S visible
30 Sep 6.7 13:06:35 11° SE 13:06:35 11° SE 13:06:43 10° SE visible
30 Sep 5.6 14:42:08 17° SSW 14:42:08 17° SSW 14:43:18 10° S visible
01 Oct 6.7 12:59:49 10° SE 12:59:49 10° SE 12:59:53 10° SE visible
01 Oct 5.7 14:35:21 16° SSW 14:35:21 16° SSW 14:36:25 10° S visible
02 Oct 6.7 12:53:02 10° SE 12:53:02 10° SE 12:53:02 10° SE visible
02 Oct 5.8 14:28:34 15° SSW 14:28:34 15° SSW 14:29:32 10° SSW visible
03 Oct 5.8 14:21:45 15° SSW 14:21:45 15° SSW 14:22:38 10° SSW visible
04 Oct 5.9 14:14:56 14° SSW 14:14:56 14° SSW 14:15:44 10° SSW visible
05 Oct 6.0 14:08:05 14° SSW 14:08:05 14° SSW 14:08:50 10° SSW visible
